COSMOS 2251 DEB, 36539

Orbit data source: Space-Track

COSMOS 2251 DEB, 36539 is space debris in LEO originally from a launch on Wed, 16 Jun 1993 UTC launched from the Plesetsk Missile And Space Complex (PKMTR). The debris from Iridium 33, an American commercial communications satellite, has been tracked extensively since its accidental collision with the defunct Russian satellite Cosmos 2251 in 2009. This event, occurring at high speed in low Earth orbit (LEO), generated thousands of pieces of space debris, significantly increasing the risk of further collisions. The Iridium 33 debris cloud has impacted space traffic management and orbital debris mitigation strategies, making it a subject of ongoing study in space situational awareness.

Loading next visibility...
Identifier
36539, 1993-036BCZ
Orbit
LEO
Country
Flag of CISCIS
Related business
Manufacturer
Unknown
Mission
Spacecraft
Bus & Motor
Unknown
Mass
Unknown
Launch date (UTC)
1993-06-16 (33 years ago)
Launch vehicle
Unknown
Launch site
Plesetsk Missile And Space Complex (PKMTR)
Object type
Payload
Rocket body
Debris
Shape & HBR
Unknown shape, 0.1 m
Radar Cross Section
Small (<0.1 m²)

Expand to show TLE details & history
Last TLE update: 10 hours ago

TLE from 10 hours ago
0 COSMOS 2251 DEB
1 36539U 93036BCZ 25352.56659421  .00002174  00000-0  46364-3 0  9992
2 36539  74.0238  44.0646 0026825 188.3183 171.7542 14.59336837840324
Epoch: 2025-12-18T13:35Z
TLE epoch observation values (Epoch: 2025-12-18T13:35:53.739Z)
Latitude
Longitude
112.67043°
Altitude
716.737 km
Speed
7.487 km/s
True Right ascension
02h 56m 15s
True Declination
0° 00' 00"
Sunlit
Object was in full shadow at epoch
Visualization orbit readout
Latitude
Unknown
Longitude
Unknown
Altitude
Unknown
Speed
Unknown
Apparent Right ascension
Unknown
Apparent Declination
Unknown
Sunlit
N/A
Visualization observer readout
Local Sidereal Time
22:33:21
Azimuth
Unknown
Elevation
Unknown
Doppler factor
Unknown
Orbital elements
Apogee altitude
711.883 km
Perigee altitude
673.947 km
Semi-major axis
7,071.052 km
Eccentricity
0.00268
Inclination
74.0238°
RAAN
44.0646°
Arg. of periapsis
188.3183°
True anomaly
171.79814°
Mean anomaly
171.7542°
Eccentric anomaly
171.77618°
Mean motion
3.6502 °/min
Orbital period
98.62 mins
BSTAR
0.00046364
Loading maneuver chart data...
Computing Atmospheric mass density...
Loading historical data...
Loading historical data...
Loading historical data...
Loading historical data...
Loading historical data...
Loading historical data...
Loading historical data...

Documentation

Showing up to 5 results
|